COSMOS 1275 DEB, 17621

Orbit data source: Space-Track

COSMOS 1275 DEB, 17621 is space debris in LEO originally from a launch on Thu, 04 Jun 1981 UTC launched from the Plesetsk Missile And Space Complex (PKMTR). Debris objects in space refer to the collection of defunct objects orbiting the Earth. Examples of debris include non-operational satellites, rocket bodies, and fragments generated from explosions, collisions, or faulty payload assembly.

Loading next visibility...
Identifier
17621, 1981-053KQ
Orbit
LEO
Country
Flag of CISCIS
Related business
Manufacturer
Unknown
Mission
Spacecraft
Bus & Motor
Unknown
Mass
Unknown
Launch date (UTC)
1981-06-04 (44 years ago)
Launch vehicle
Unknown
Launch site
Plesetsk Missile And Space Complex (PKMTR)
Object type
Payload
Rocket body
Debris
Shape & HBR
Unknown shape, 0.1 m
Radar Cross Section
Small (<0.1 m²)

Expand to show TLE details & history
Last TLE update: 1 day ago

TLE from 1 day ago
0 COSMOS 1275 DEB
1 17621U 81053KQ  25285.64736603  .00014021  00000-0  40939-2 0  9996
2 17621  82.7802  61.8998 0028741 313.0868  46.7921 14.43746490 71995
Epoch: 2025-10-12T15:32Z
TLE epoch observation values (Epoch: 2025-10-12T15:32:12.424Z)
Latitude
0.00005°
Longitude
167.38654°
Altitude
735.148 km
Speed
7.495 km/s
True Right ascension
04h 07m 35s
True Declination
0° 00' 00"
Sunlit
Object was in full shadow at epoch
Visualization orbit readout
Latitude
Unknown
Longitude
Unknown
Altitude
Unknown
Speed
Unknown
Apparent Right ascension
Unknown
Apparent Declination
Unknown
Sunlit
N/A
Visualization observer readout
Local Sidereal Time
19:14:55
Azimuth
Unknown
Elevation
Unknown
Doppler factor
Unknown
Orbital elements
Apogee altitude
763.675 km
Perigee altitude
722.74 km
Semi-major axis
7,121.345 km
Eccentricity
0.00287
Inclination
82.7802°
RAAN
61.8998°
Arg. of periapsis
313.0868°
True anomaly
47.03274°
Mean anomaly
46.7921°
Eccentric anomaly
46.91236°
Mean motion
3.6116 °/min
Orbital period
99.68 mins
BSTAR
0.0040939
Loading maneuver chart data...
Computing Atmospheric mass density...
Loading historical data...
Loading historical data...
Loading historical data...
Loading historical data...
Loading historical data...
Loading historical data...
Loading historical data...

Documentation

Showing up to 5 results
|